SCP
1 1 1 0 0 0 0 0 0 0 0 0 0 0 0 0 0 0 0 0 0 0 0 0 0 0 0 -0 -0 -0 -0 0 0 0 0 0 0 0 0 0 0 0 0
1 1 1 0 0 0 0 0 0 0 0 0 0 0 0 0 0 0 0 0 0 0 0 0 0 0 0 0 -0 -0 -0 -0 0 0 0 0 0 0 0 0 0 0 0
1 1 1 0 0 0 0 0 0 0 0 0 0 0 0 0 0 0 0 0 0 0 0 0 0 0 0 0 -0 -0 -0 -0 -0 -0 0 0 0 0 0 0 0 0 0
1 0 0 0 0 0 0 0 0 0 0 0 0 0 0 0 0 0 0 0 0 0 0 0 0 0 0 0 -0 -0 -0 -0 -0 0 0 0 0 0 0 0 0 0 0
0 0 0 0 0 0 0 0 0 0 0 0 0 0 0 0 0 0 0 0 0 0 0 0 0 0 0 0 -0 -0 -0 -0 0 0 0 0 0 0 0 0 0 0 0
1 0 0 0 0 0 0 0 0 0 0 0 0 0 0 0 0 0 0 0 0 0 0 0 0 0 0 0 -0 -0 -0 0 0 0 0 0 0 0 0 0 0 0 0
1 0 0 0 0 0 0 0 0 0 0 0 0 0 0 0 0 0 0 0 0 0 0 0 0 0 0 0 -0 -0 -0 0 0 0 0 0 0 0 0 0 0 0 0
1 1 0 0 0 0 0 0 0 0 0 0 0 0 0 0 0 0 0 0 0 0 0 0 0 0 0 0 -0 -0 0 0 0 0 0 0 0 0 0 0 0 0 0
1 1 0 0 0 0 0 0 0 0 0 0 0 0 0 0 0 0 0 0 0 0 0 0 0 0 0 0 0 -0 -0 0 0 0 0 0 0 0 0 0 0 0 0
1 0 0 0 0 0 0 0 0 0 0 0 0 0 0 0 0 0 0 0 0 0 0 0 0 0 0 0 0 0 0 0 0 0 0 0 0 0 0 0 0 0 0
1 1 0 0 0 0 0 0 0 0 0 0 0 0 0 0 0 0 0 0 0 0 0 0 0 0 0 0 0 0 0 0 0 0 0 0 0 0 0 0 0 0 0
1 1 1 0 0 0 0 0 0 0 0 0 0 0 0 0 0 0 0 0 0 0 0 0 0 0 0 0 0 0 0 0 0 0 0 0 0 0 0 0 0 0 0
1 1 1 1 1 0 0 0 0 0 0 0 0 0 0 0 0 0 0 0 0 0 0 0 0 0 0 0 0 0 0 0 0 0 0 0 0 0 0 0 0 0 0
1 1 1 1 1 1 1 0 0 0 0 0 0 0 0 0 0 0 0 0 0 0 0 0 0 0 0 0 0 0 0 0 0 0 0 0 0 0 0 0 0 0 0
1 1 1 1 1 1 1 1 0 0 0 0 0 0 0 0 0 0 0 0 0 0 0 0 0 0 0 0 0 0 0 0 0 0 0 0 0 0 0 0 0 0 0
2 2 2 2 2 1 1 1 0 0 0 0 0 0 0 0 0 0 0 0 0 0 0 0 0 0 0 0 0 0 0 0 0 0 0 0 0 0 0 0 0 0 0
2 2 2 2 2 1 1 1 0 0 0 0 0 0 0 0 0 0 0 0 0 0 0 0 0 0 0 0 0 0 0 0 0 0 0 0 0 0 0 0 0 0 0
2 2 2 2 1 1 1 1 0 0 0 0 0 0 0 0 0 0 0 0 0 0 0 0 0 0 0 0 0 0 0 0 0 0 0 0 0 0 0 0 0 0 0
2 2 2 2 1 1 1 1 1 0 0 0 0 0 0 0 0 0 0 0 0 0 0 0 0 0 0 0 0 0 0 0 0 0 0 0 0 0 0 0 0 0 0
2 2 2 2 1 1 1 1 1 0 0 0 0 0 0 0 0 0 0 0 0 0 0 0 0 0 0 0 0 0 0 0 0 0 0 0 0 0 0 0 0 0 0
2 2 2 2 1 1 1 1 1 0 0 0 0 0 0 0 0 0 0 0 0 0 0 0 0 0 0 0 0 0 0 0 0 0 0 0 0 0 0 0 0 0 0
1 1 1 1 1 1 1 1 1 0 0 0 0 0 0 0 0 0 0 0 0 0 0 0 0 0 0 0 0 0 0 0 0 0 0 0 0 0 0 0 0 0 0
1 1 1 1 1 1 1 1 0 0 0 0 0 0 0 0 0 0 0 0 0 0 0 0 0 0 0 0 0 0 0 0 0 0 0 0 0 0 0 0 0 0 0
1 1 1 1 1 1 1 0 0 0 0 0 0 0 0 0 0 0 0 0 0 0 0 0 0 0 0 0 0 0 0 0 0 0 0 0 0 0 0 0 0 0 0
1 1 1 1 1 1 1 0 0 0 0 0 0 0 0 0 0 0 0 0 0 0 0 0 0 0 0 0 0 0 0 0 0 0 0 0 0 0 0 0 0 0 0
1 1 1 1 1 1 1 0 0 0 0 0 0 0 0 0 0 0 0 0 0 0 0 0 0 0 0 0 0 0 0 0 0 0 0 0 0 0 0 0 0 0 0
Wind_Speed
18 17 16 15 14 13 13 13 13 13 13 13 12 12 11 11 11 12 12 12 12 12 11 11 10 10 10 10 9 9 9 9 10 11 13 13 12 11 10 11 13 12 15
21 18 17 16 15 14 13 13 13 13 13 13 12 11 11 11 11 11 11 11 12 11 11 11 11 10 10 10 9 8 8 7 8 10 12 12 11 10 8 8 13 10 14
21 18 17 16 15 14 14 13 13 13 13 12 11 11 10 10 10 11 11 11 11 11 11 11 10 10 10 9 9 8 6 6 6 8 9 7 9 10 11 14 15 14 13
20 17 16 17 15 15 14 13 13 13 12 11 11 10 10 10 10 10 10 10 10 10 10 10 10 10 9 9 8 6 5 4 3 4 3 5 8 11 12 13 13 13 12
18 17 17 17 16 15 14 13 13 12 12 11 10 10 10 9 9 9 9 9 9 9 9 10 9 9 9 8 7 5 4 2 2 3 4 7 8 10 11 12 12 11 11
19 18 17 17 16 15 14 13 12 12 11 11 10 9 9 8 8 8 8 8 8 8 8 8 8 8 8 7 5 4 5 5 7 1 7 9 8 10 11 11 11 10 10
19 18 17 17 16 14 13 12 12 11 11 10 9 8 8 8 8 8 8 7 7 7 7 7 7 7 6 5 4 4 6 8 6 2 8 9 9 11 11 10 10 10 9
19 19 16 16 15 14 13 12 11 11 10 9 9 8 8 8 7 7 7 7 6 6 6 5 5 5 5 4 2 3 6 9 5 5 10 10 11 11 11 10 9 9 9
19 18 15 14 13 13 13 12 11 11 10 9 8 8 7 7 7 7 6 6 5 5 5 4 3 3 3 2 0 3 6 8 8 1 10 8 13 12 11 10 9 9 9
15 17 15 15 13 12 11 12 12 11 10 9 8 7 7 6 6 6 6 5 4 3 3 2 2 2 2 2 3 4 6 8 6 3 6 9 14 13 12 10 9 9 8
11 12 13 15 13 12 12 12 11 11 9 9 8 7 6 4 5 5 6 7 5 3 3 2 3 3 4 5 6 6 6 4 1 3 5 12 14 13 12 10 9 8 8
11 9 7 11 11 10 9 9 7 7 7 6 4 5 4 3 2 4 8 7 6 5 4 4 5 5 6 4 6 6 4 4 0 4 6 14 14 13 11 10 9 8 7
10 9 8 7 7 8 7 6 4 3 5 4 5 3 2 1 2 3 2 3 3 4 2 4 4 3 1 0 1 2 2 3 2 3 7 12 12 12 11 10 9 9 8
11 10 8 7 7 5 6 5 4 3 4 4 3 2 3 2 2 2 2 1 0 1 1 1 0 0 1 1 1 1 2 2 2 3 5 11 11 10 10 10 10 9 9
10 9 8 8 8 6 5 2 4 4 4 5 3 3 2 2 3 3 2 1 1 1 2 1 1 1 1 1 1 1 1 1 1 2 4 8 10 9 9 10 10 10 9
9 10 9 9 9 6 4 3 3 4 3 5 4 4 3 4 3 2 1 1 2 2 2 1 1 0 0 0 1 0 1 1 0 1 2 5 9 9 9 10 10 10 10
9 10 9 9 9 6 5 4 3 3 5 5 5 4 4 5 3 2 1 2 2 1 0 0 1 1 1 2 2 1 1 0 1 1 0 2 5 8 10 10 10 10 10
9 10 8 8 10 7 5 3 2 3 4 5 5 4 5 4 2 2 2 3 2 1 1 1 1 2 2 2 0 0 0 1 1 2 2 2 2 3 8 10 10 10 11
8 9 8 7 9 8 6 3 3 3 3 4 4 4 4 3 1 2 3 2 3 1 2 3 3 2 2 2 2 1 1 1 1 2 2 2 2 2 3 8 10 10 12
9 9 9 8 8 7 5 3 2 4 3 4 5 4 4 3 2 2 3 1 3 3 3 3 2 1 1 2 3 1 0 1 1 1 1 1 2 2 3 4 5 7 11
10 9 10 9 8 6 4 4 4 3 3 4 5 6 4 3 3 2 3 1 2 4 3 3 2 2 1 1 2 1 2 3 2 1 0 1 1 1 2 4 3 3 4
11 11 10 9 9 8 5 4 3 4 3 3 5 5 4 4 3 3 2 1 3 3 3 2 2 3 2 2 2 2 1 2 0 2 1 1 2 2 0 3 3 3 2
12 12 11 10 10 8 7 4 4 3 2 3 6 4 4 4 2 2 2 2 1 1 3 1 2 2 3 1 2 2 2 2 1 2 1 2 1 1 1 1 3 3 3
12 12 11 11 10 8 8 7 7 6 5 5 5 5 5 4 4 4 3 2 1 1 2 1 3 3 2 2 1 1 2 1 1 1 0 2 2 2 1 2 1 2 3
13 12 12 11 10 9 8 7 6 5 4 4 5 7 6 5 4 4 4 3 1 0 3 3 2 3 3 3 3 1 1 1 2 1 0 1 1 2 2 1 1 1 2
12 12 12 12 10 9 9 8 7 6 4 5 6 7 5 5 5 5 5 4 3 2 3 2 0 0 1 3 3 3 2 1 2 2 2 1 1 2 3 2 0 1 1
Wind_Direction
121 122 120 116 115 115 116 115 113 112 110 106 102 99 95 92 90 88 86 85 85 84 82 81 81 78 73 70 70 71 74 80 87 93 96 96 95 94 96 103 104 97 101
120 123 120 118 117 116 116 115 113 113 111 109 106 103 99 96 92 91 89 86 85 84 82 81 81 78 75 74 74 76 81 90 100 106 108 103 98 94 90 92 97 105 105
120 124 122 119 118 117 116 116 115 114 113 111 109 106 103 98 95 93 90 88 87 86 84 83 83 81 77 75 74 75 82 95 111 122 122 112 104 95 92 96 103 107 106
125 131 125 123 121 119 119 118 117 117 115 113 110 106 102 99 96 92 90 88 88 86 86 84 83 81 78 75 71 69 69 80 111 147 149 127 111 102 101 103 107 108 108
126 123 124 128 125 123 122 121 121 120 118 115 112 108 104 101 99 96 93 92 91 88 87 87 86 84 81 76 68 53 33 13 308 227 122 101 99 112 109 110 111 111 110
125 124 128 129 127 126 126 126 124 123 122 120 117 114 109 105 100 97 93 91 92 90 89 91 89 87 85 77 64 31 353 332 302 182 119 113 112 120 117 116 115 114 113
129 126 131 130 129 128 128 127 127 126 125 123 121 118 113 110 104 99 95 92 92 93 92 91 92 90 88 79 57 8 333 320 285 117 114 111 118 124 123 120 118 117 116
128 127 130 131 132 132 133 133 133 131 130 128 125 121 117 114 109 105 97 94 93 94 96 94 93 96 95 86 51 340 322 317 324 99 114 118 128 127 126 124 123 122 119
128 130 138 138 137 137 138 139 138 137 136 134 131 128 130 129 127 122 114 105 100 100 101 102 105 106 108 114 33 312 309 312 303 115 119 124 132 131 132 132 131 130 129
130 136 145 147 146 149 146 145 143 144 143 143 144 148 151 154 154 150 142 127 120 116 119 125 138 159 174 195 229 267 290 303 291 64 105 129 136 135 138 139 138 138 137
129 137 151 146 153 158 153 148 151 153 155 156 162 170 177 188 172 164 139 147 157 159 164 180 195 208 217 215 227 248 273 271 340 90 108 140 142 140 142 146 145 146 148
135 131 133 144 156 155 147 147 159 164 158 177 164 173 188 185 169 139 143 163 174 182 190 202 222 231 233 220 213 231 254 266 142 119 132 147 143 144 148 153 155 157 158
143 131 134 145 137 130 130 152 146 149 152 162 149 149 136 113 110 112 144 162 187 189 194 182 217 241 228 229 205 224 287 337 47 86 136 147 143 147 153 160 164 166 167
143 135 143 133 113 112 125 128 139 142 136 120 107 72 80 66 59 70 64 21 283 141 118 99 185 86 22 349 324 313 332 359 45 98 151 149 145 152 161 168 172 174 174
143 136 130 116 103 98 95 129 123 114 117 114 109 81 63 80 63 64 64 12 344 51 76 51 50 48 344 293 295 334 358 360 14 77 132 153 153 161 169 177 183 187 184
146 131 127 122 114 114 115 100 108 119 116 112 99 83 59 74 56 33 91 36 30 56 50 8 8 259 233 191 267 17 314 331 34 74 138 163 169 175 180 186 190 194 196
144 133 131 132 130 136 139 147 141 139 127 108 104 90 67 75 63 4 67 69 32 53 114 79 324 280 227 219 202 192 215 241 8 18 149 173 176 188 191 194 196 198 201
144 139 146 147 141 143 141 151 128 116 113 115 119 104 85 85 52 356 52 55 343 343 50 71 13 351 359 345 2 5 132 166 218 232 239 211 178 176 191 198 201 202 205
146 146 144 135 141 145 144 137 112 103 107 116 115 111 109 105 79 48 71 42 298 36 46 32 53 12 346 357 310 202 226 153 187 244 247 221 178 174 169 189 201 205 209
155 153 147 142 140 140 139 132 126 124 135 125 114 115 129 128 79 26 108 41 348 56 51 51 19 349 303 322 312 86 137 133 200 93 293 255 167 186 170 173 185 206 211
164 158 154 150 147 146 145 153 151 155 159 136 133 137 143 128 104 10 83 112 56 78 52 34 4 302 222 21 308 251 187 184 150 129 101 11 56 147 160 156 167 177 193
168 160 156 156 158 160 156 160 159 153 171 150 131 142 154 149 163 153 82 138 77 106 80 44 32 334 347 85 327 307 187 138 259 129 141 139 45 15 133 150 158 170 194
169 166 166 161 162 164 159 164 159 146 193 147 136 159 169 160 154 75 94 53 26 127 115 54 15 13 350 349 56 4 5 41 185 130 120 98 91 27 16 117 150 168 177
174 170 163 161 162 162 169 175 173 177 191 171 161 160 167 174 171 151 152 108 355 45 106 99 82 338 325 331 121 111 91 66 343 33 209 133 163 147 78 13 73 119 127
175 171 164 163 165 164 177 180 182 187 190 167 156 148 167 174 183 172 161 157 184 107 96 71 72 8 351 7 355 1 63 220 246 245 195 200 212 155 137 125 94 103 128
175 170 162 164 168 170 183 182 191 203 192 161 158 158 181 172 182 181 171 168 190 180 130 123 92 96 55 28 351 340 344 345 340 346 339 295 212 155 151 125 124 162 148